KLM90Z EDDB-EHAM

Flight info

Callsign KLM90Z
Flight time N/A
Altitude 34000
Route SUKIP3Q/06R SUKIP Y206 BUREL P203 HLZ L980 ROBEG DCT NORKU
Aircraft B738/M-SDE2E3FGHIRWXY/LB1

Departure

Time 2026-05-06 09:53
Airport Berlin Brandenburg Airport (EDDB)

Arrival

Time N/A
Airport Amsterdam Airport Schiphol (EHAM)
Time Latitude Longitude Altitude Speed Heading
2026-05-06 08:57 52.36094 13.51178 154 ft 0 kts 339°
2026-05-06 09:40 52.36070 13.51193 154 ft 4 kts 338°
2026-05-06 09:41 52.36046 13.51212 154 ft 4 kts 323°
2026-05-06 09:41 52.36028 13.51242 154 ft 4 kts 294°
2026-05-06 09:41 52.36025 13.51278 154 ft 2 kts 249°
2026-05-06 09:41 52.36027 13.51285 154 ft 1 kts 249°
2026-05-06 09:45 52.36017 13.51241 154 ft 12 kts 249°
2026-05-06 09:46 52.35969 13.51033 154 ft 24 kts 250°
2026-05-06 09:46 52.35920 13.50829 154 ft 11 kts 246°
2026-05-06 09:46 52.35865 13.50773 153 ft 10 kts 168°
2026-05-06 09:46 52.35802 13.50804 153 ft 10 kts 155°
2026-05-06 09:47 52.35733 13.50818 153 ft 12 kts 206°
2026-05-06 09:47 52.35691 13.50685 153 ft 16 kts 251°
2026-05-06 09:47 52.35647 13.50497 153 ft 20 kts 248°
2026-05-06 09:47 52.35592 13.50267 153 ft 23 kts 249°
2026-05-06 09:48 52.35530 13.50000 153 ft 27 kts 249°
2026-05-06 09:48 52.35459 13.49704 153 ft 29 kts 249°
2026-05-06 09:48 52.35384 13.49378 153 ft 32 kts 248°
2026-05-06 09:48 52.35301 13.49044 153 ft 31 kts 248°
2026-05-06 09:49 52.35227 13.48729 153 ft 29 kts 250°
2026-05-06 09:49 52.35156 13.48433 153 ft 27 kts 248°
2026-05-06 09:49 52.35092 13.48161 153 ft 25 kts 249°
2026-05-06 09:49 52.35031 13.47903 156 ft 23 kts 248°
2026-05-06 09:50 52.34973 13.47661 153 ft 22 kts 249°
2026-05-06 09:50 52.34919 13.47425 153 ft 22 kts 250°
2026-05-06 09:50 52.34864 13.47196 153 ft 21 kts 244°
2026-05-06 09:50 52.34808 13.46978 153 ft 21 kts 248°
2026-05-06 09:51 52.34756 13.46788 153 ft 14 kts 223°
2026-05-06 09:51 52.34688 13.46784 153 ft 2 kts 156°
2026-05-06 09:51 52.34654 13.46808 153 ft 13 kts 156°
2026-05-06 09:52 52.34567 13.46918 153 ft 19 kts 101°
2026-05-06 09:52 52.34604 13.47094 153 ft 25 kts 65°
2026-05-06 09:52 52.34754 13.47731 153 ft 95 kts 69°
2026-05-06 09:52 52.35070 13.49051 156 ft 152 kts 67°
2026-05-06 09:53 52.35488 13.50824 507 ft 173 kts 66°
2026-05-06 09:53 52.35959 13.52634 1350 ft 176 kts 68°
2026-05-06 09:53 52.36122 13.54695 1656 ft 193 kts 95°
2026-05-06 09:53 52.35547 13.56698 2120 ft 198 kts 135°
2026-05-06 09:54 52.34340 13.57578 2757 ft 187 kts 176°
2026-05-06 09:54 52.33112 13.57395 3362 ft 177 kts 208°
2026-05-06 09:54 52.32158 13.56016 3772 ft 191 kts 232°
2026-05-06 09:54 52.31178 13.54319 3956 ft 217 kts 225°
2026-05-06 09:55 52.29986 13.52616 4205 ft 238 kts 221°
2026-05-06 09:55 52.28660 13.50890 4749 ft 246 kts 220°
2026-05-06 09:55 52.27239 13.49181 5263 ft 260 kts 224°
2026-05-06 09:55 52.26323 13.46715 5968 ft 261 kts 258°
2026-05-06 09:56 52.26359 13.43589 5885 ft 295 kts 278°
2026-05-06 09:56 52.26526 13.40259 6820 ft 286 kts 274°
2026-05-06 09:56 52.26623 13.37023 7557 ft 293 kts 273°
2026-05-06 09:56 52.26695 13.33663 8259 ft 294 kts 272°
2026-05-06 09:57 52.26732 13.31042 9134 ft 284 kts 271°
2026-05-06 09:57 52.26749 13.29711 9601 ft 279 kts 270°
2026-05-06 09:57 52.26796 13.26576 10448 ft 274 kts 271°
2026-05-06 09:57 52.26865 13.23453 10899 ft 284 kts 271°
2026-05-06 09:58 52.26952 13.20142 11101 ft 302 kts 271°
2026-05-06 09:58 52.27026 13.16604 11238 ft 319 kts 271°
2026-05-06 09:58 52.27113 13.12940 11735 ft 323 kts 271°
2026-05-06 09:58 52.27242 13.09329 12658 ft 312 kts 273°
2026-05-06 09:59 52.27427 13.05867 13602 ft 303 kts 274°
2026-05-06 09:59 52.27687 13.02449 14096 ft 306 kts 276°
2026-05-06 09:59 52.28033 12.98937 14197 ft 321 kts 278°
2026-05-06 09:59 52.28472 12.95269 14213 ft 337 kts 280°
2026-05-06 10:00 52.28807 12.92821 14375 ft 342 kts 281°
2026-05-06 10:00 52.29314 12.89026 14919 ft 339 kts 279°
2026-05-06 10:00 52.29780 12.85346 15683 ft 330 kts 279°
2026-05-06 10:00 52.30248 12.81667 16349 ft 325 kts 279°
2026-05-06 10:01 52.30732 12.78086 16641 ft 331 kts 280°
2026-05-06 10:01 52.31152 12.75200 16657 ft 26 kts 281°
2026-05-06 10:01 52.31264 12.75159 14004 ft 83 kts 285°